This demonstration page uses our WeatherBlox Daily Observations layout. Learn more.

38.89511, -77.03637

Hourly Observations for October 11, 2015

Temp ( °F °C ) Dew Point ( °F °C ) Humidity (%) Winds ( mph kmh ) Pressure ( in mb ) Visibility ( mi km ) Precip ( " mm )
12:52 am 00:52 Clear 53 11.7 46 7.8 77 77 Calm 30.08 1019 10 16.0934 0 0
1:52 am 01:52 Clear 52 11.1 47 8.3 83 83 Calm 30.06 1018 10 16.0934 0 0
2:52 am 02:52 Clear 51 10.6 47 8.3 86 86 Calm 30.05 1018 10 16.0934 0 0
3:52 am 03:52 Clear 49 9.4 45 7.2 86 86 Calm 30.04 1017 10 16.0934 0 0
4:52 am 04:52 Clear 48 8.9 45 7.2 89 89 Calm 30.04 1017 10 16.0934 0 0
5:52 am 05:52 Clear 48 8.9 44 6.7 86 86 SW 3 6 30.04 1017 10 16.0934 0 0
6:15 am 06:15 Partly Cloudy 48 9 45 7 87 87 Calm 30.06 1018 10 16.0934 0 0
6:52 am 06:52 Partly Cloudy 48 8.9 44 6.7 86 86 Calm 30.06 1018 10 16.0934 0 0
7:52 am 07:52 Mostly Cloudy 50 10 44 6.7 80 80 Calm 30.06 1018 10 16.0934 0 0
8:52 am 08:52 Mostly Cloudy 54 12.2 47 8.3 77 77 Calm 30.06 1018 10 16.0934 0 0
9:52 am 09:52 Mostly Cloudy 56 13.3 49 9.4 77 77 Calm 30.06 1018 10 16.0934 0 0
10:52 am 10:52 Mostly Cloudy 60 15.6 48 8.9 65 65 ENE 3 6 30.04 1017 10 16.0934 0 0
11:52 am 11:52 Mostly Cloudy 63 17.2 47 8.3 56 56 VRB 3 6 30.03 1017 10 16.0934 0 0
12:52 pm 12:52 Partly Cloudy 67 19.4 46 7.8 47 47 NNE 8 13 30 1016 10 16.0934 0 0
1:52 pm 13:52 Mostly Sunny 69 20.6 47 8.3 45 45 NNE 9 15 29.97 1015 10 16.0934 0 0
2:52 pm 14:52 Sunny 69 20.6 46 7.8 44 44 E 5 7 29.94 1014 10 16.0934 0 0
3:52 pm 15:52 Mostly Sunny 69 20.6 47 8.3 45 45 S 7 11 29.92 1013 10 16.0934 0 0
4:52 pm 16:52 Sunny 68 20 49 9.4 51 51 S 9 15 29.91 1013 10 16.0934 0 0
5:52 pm 17:52 Sunny 67 19.4 50 10 55 55 S 7 11 29.91 1013 10 16.0934 0 0
6:52 pm 18:52 Clear 64 17.8 48 8.9 56 56 SSW 8 13 29.91 1013 10 16.0934 0 0
7:52 pm 19:52 Clear 61 16.1 49 9.4 65 65 SSW 5 7 29.91 1013 10 16.0934 0 0
8:52 pm 20:52 Clear 59 15 53 11.7 81 81 SSW 7 11 29.92 1013 10 16.0934 0 0
9:52 pm 21:52 Clear 58 14.4 53 11.7 84 84 S 6 9 29.92 1013 10 16.0934 0 0
10:52 pm 22:52 Clear 57 13.9 51 10.6 81 81 SW 3 6 29.92 1013 10 16.0934 0 0
11:52 pm 23:52 Clear 56 13.3 52 11.1 87 87 SW 3 6 29.92 1013 10 16.0934 0 0

Powered by AerisWeather